Regional Weather Roundup
Issued by NWS

Home | Current Version | Previous Version | Graphics & Text | Print | Product List | Glossary On
Versions: 1 2 3 4 5 6 7 8 9 10 11 12 13 14 15 16 17 18 19 20 21 22 23 24 25 26 27 28 29 30 31 32 33 34 35 36 37 38 39 40 41 42 43 44 45 46 47 48 49 50
519
ASUS45 KTFX 191610
RWRMT
MONTANA REGIONAL WEATHER ROUNDUP
NATIONAL WEATHER SERVICE GREAT FALLS MT
1000 AM MDT SAT AUG 19 2017

NOTE: "FAIR" INDICATES FEW OR NO CLOUDS BELOW 12000 FEET WITH NO
SIGNIFICANT WEATHER AND/OR OBSTRUCTIONS TO VISIBILITY.

MTZ001>007-043-191700-
WEST OF THE DIVIDE

CITY           SKY/WX    TMP DP  RH WIND       PRES   REMARKS
KALISPELL      SUNNY     73  41  31 SW9       29.96S
MISSOULA       PTSUNNY   70  37  29 W5        30.04S
BUTTE          SUNNY     64  31  28 CALM      30.12F
MULLAN PASS    SUNNY     52  37  56 VRB7      30.15R
ANACONDA         N/A     68  30  24 CALM      30.08F
DEER LODGE       N/A     68  37  32 E3        30.10R
EUREKA           N/A     68  39  34 MISG      29.96R
HAMILTON         N/A     70  45  40 CALM      30.05S
LIBBY            N/A     70  43  37 N5        29.97S
$$

MTZ008-052>055-191700-
SOUTHWEST MONTANA

CITY           SKY/WX    TMP DP  RH WIND       PRES   REMARKS
BOZEMAN        MOSUNNY   68  35  29 CALM      30.06S
DILLON         CLOUDY    61  39  44 SW12      30.10S
W YELLOWSTONE  CLOUDY    55  37  50 CALM      30.21F
ENNIS          SUNNY     70  36  28 S12       30.14F
THREE FORKS      N/A     63  37  37 CALM      30.04S
$$

MTZ009-010-012-014-046-048-049-054-191700-
EAST SLOPES AND CENTRAL MONTANA

CITY           SKY/WX    TMP DP  RH WIND       PRES   REMARKS
CUT BANK       MOSUNNY   56  39  53 N10       30.06S
GREAT FALLS    SUNNY     61  44  53 NW6       30.05R
MALMSTROM AFB  SUNNY     61  45  56 N3        30.04S
HELENA         SUNNY     76  33  21 W6        30.02F
AUGUSTA          N/A     58  42  56 N8        30.07R
BOWMANS CRNR     N/A     57  43  60 NE15      30.04
CHOTEAU          N/A     57  41  54 VRB6      30.08S
FAIRFIELD        N/A     58  41  53 NW3       30.05F
POWER            N/A     57  41  56 CALM      30.05R
RAYNESFORD       N/A     62  45  53 NW7       30.05
ULM              N/A     61  46  57 NW5       30.05F
$$

MTZ011-013-016-021-045-047-050-051-191700-
NORTH CENTRAL MONTANA

CITY           SKY/WX    TMP DP  RH WIND       PRES   REMARKS
HAVRE          SUNNY     65  41  41 NE10      29.98S
LEWISTOWN      SUNNY     67  42  40 NW12G21   30.02R
N BAR RANCH      N/A     68  30  24 NW18G24   30.04R
CHINOOK          N/A     64  41  42 W8        29.97S
DENTON           N/A     60  44  56 NW8       29.99
GEYSER           N/A     65  42  41 W15G22    30.01
GRASS RANGE      N/A     70  34  27 NW14      29.96R
JUDITH GAP       N/A     64  36  35 NW20      30.03R
WINIFRED         N/A     62  46  54 W13       30.00
$$

MTZ017>020-022>027-061-062-191700-
NORTHEAST MONTANA

CITY           SKY/WX    TMP DP  RH WIND       PRES   REMARKS
GLASGOW        PTSUNNY   67  46  47 NW20G29   29.86R
JORDAN           N/A     76  38  25 NW26G35   29.86R
SIDNEY         PTSUNNY   80  43  26 NW14      29.76R
WOLF POINT     CLOUDY    76  40  27 W18G29    29.79R
MALTA          SUNNY     68  43  40 N14G23    29.92R
PLENTYWOOD       N/A     75  45  33 W20       29.74R
POPLAR           N/A     72  46  40 SW12      29.78R
$$

MTZ028>42-056>058-191700-
SOUTHCENTRAL AND SOUTHEAST MONTANA

CITY           SKY/WX    TMP DP  RH WIND       PRES   REMARKS
BAKER          SUNNY     81  35  19 W16G23    29.86R
BILLINGS       CLOUDY    69  38  32 SW12      29.97R
LIVINGSTON     SUNNY     74  37  26 W9        30.04R
MILES CITY     MOSUNNY   79  31  17 W7        29.87R
BIG TIMBER     SUNNY     70  32  24 W15       30.03S
HARLOWTON      PTSUNNY   73  30  20 MISG      30.01
LAUREL           N/A     73  36  25 SW8       29.99R
$$

REGIONAL REPORTS...DAKOTAS

CITY           SKY/WX    TMP DP  RH WIND       PRES   REMARKS
WILLISTON      MOSUNNY   72  55  55 S7        29.73S
MINOT          SUNNY     76  57  51 S15       29.71F
DICKINSON      SUNNY     77  51  40 W12       29.78S
BEACH            N/A     75  36  23 W13G18    29.85R
CROSBY           N/A     79  50  36 SW14G20   29.71R
TIOGA            N/A     73  54  49 SW10      29.75S
WATFORD CITY     N/A     77  50  38 VRB7      29.74S
BISMARCK       SUNNY     76  62  62 S9        29.80F
GRAND FORKS    SUNNY     78  61  55 S10       29.81F
FARGO          SUNNY     73  62  68 S12       29.87F
BUFFALO SD       N/A     82  49  31 NW13      29.80S
RAPID CITY     SUNNY     80  55  42 CALM      29.87F
$$

REGIONAL REPORTS...WYOMING/IDAHO/WASHINGTON

CITY           SKY/WX    TMP DP  RH WIND       PRES   REMARKS
GILLETTE       SUNNY     82  30  15 NW17      29.98S
SHERIDAN       CLOUDY    77  41  27 CALM      29.99S
BUFFALO WY     CLOUDY    80  27  14 N15G24    30.05R HAZE
CODY           SUNNY     75  39  27 N5        30.07F
YELLOWSTONE LA   N/A     55  44  66 VRB3      30.30S
IDAHO FALLS    MOSUNNY   69  35  28 SW13      30.11S
SALMON         CLOUDY    58  44  60 CALM      30.09S
BOISE          SUNNY     68  41  37 CALM      30.05R
SPOKANE        PTSUNNY   60  46  59 S6        30.07R
$$

REGIONAL REPORTS...ALBERTA

CITY           SKY/WX    TMP DP  RH WIND       PRES   REMARKS
EDMONTON       SUNNY     55  41  58 W14G24    29.91S
CALGARY        PTSUNNY   54  34  47 S12       30.03S
LETHBRIDGE     CLOUDY    57  37  47 NW6       30.05R
MEDICINE HAT   CLOUDY    59  39  47 NW10G18   30.00R
$$

REGIONAL REPORTS...SASKATCHEWAN

CITY           SKY/WX    TMP DP  RH WIND       PRES   REMARKS
SWIFT CURRENT  SUNNY     59  45  58 NW24G30   29.87R
REGINA         MOSUNNY   68  50  52 NW24      29.70R
SASKATOON      PTSUNNY   63  50  63 W18G28    29.78R
$$




USA.gov is the U.S. government's official web portal to all federal, state and local government web resources and services.